User: anonymous
Location: Unspecified
(0.0000°N, 0.0000°E)
Time: 20:15:22
(UTC+02:00)
Language:

H-2A R/B - Orbit

View from above orbital plane
View from above orbital plane
View from above satellite
View from above satellite

Ground track
Ground track

The orbit data is extracted from the following two-line orbital elements,

1 26899U 01038B   14235.17418682  .00000274  00000-0  43313-3 0   315
2 26899 028.0255 120.6309 7140481 231.1391 348.8588 02.43761287111168
Epoch (UTC): 23 August 2014 04:10:49
Eccentricity: 0.7140481
inclination: 28.0255°
perigee height: 291 km
apogee height: 33596 km
right ascension of ascending node: 120.6309°
argument of perigee: 231.1391°
revolutions per day: 2.43761287
mean anomaly at epoch: 348.8588°
orbit number at epoch: 11116

The dashed part of the orbit path shows where the satellite is in the earth's shadow,  

DLR